ELY324 LFPG-LLBG

Flight info

Callsign ELY324
Flight time 3h 53m
Altitude 41000
Route BUBLI DCT LUVAL DCT BEGAR DCT TRA DCT GAMSA DCT GEDSO DCT VEKEN DCT GORPA DCT VABEK UL603 OLOTA DCT RUGAS DCT RIKSO UP14 LAVTA UN135 NESIL UT39 TOMBI DCT IDAKU L35 PIKOG L609 ZUKKO
Aircraft B789/H-SDE1E2E3FGHIJ2J3J4J5M1RWXY/LB1D1

Departure

Time 2026-05-06 13:40
Airport Charles de Gaulle International Airport (LFPG)

Arrival

Time 2026-05-06 17:34
Airport Ben Gurion International Airport (LLBG)
Time Latitude Longitude Altitude Speed Heading
2026-05-06 12:31 49.00524 2.56093 359 ft 0 kts 150°
2026-05-06 13:25 49.00533 2.56085 359 ft 2 kts 150°
2026-05-06 13:25 49.00547 2.56073 364 ft 2 kts 151°
2026-05-06 13:26 49.00562 2.56061 366 ft 2 kts 150°
2026-05-06 13:26 49.00576 2.56047 366 ft 2 kts 139°
2026-05-06 13:26 49.00585 2.56027 365 ft 2 kts 104°
2026-05-06 13:26 49.00586 2.56002 363 ft 2 kts 78°
2026-05-06 13:27 49.00582 2.55984 365 ft 1 kts 70°
2026-05-06 13:27 49.00582 2.55983 365 ft 0 kts 70°
2026-05-06 13:30 49.00586 2.56002 364 ft 6 kts 71°
2026-05-06 13:30 49.00602 2.56070 361 ft 8 kts 71°
2026-05-06 13:30 49.00614 2.56180 359 ft 12 kts 86°
2026-05-06 13:30 49.00620 2.56312 359 ft 13 kts 86°
2026-05-06 13:31 49.00649 2.56433 366 ft 12 kts 37°
2026-05-06 13:31 49.00718 2.56450 360 ft 10 kts 358°
2026-05-06 13:31 49.00781 2.56449 366 ft 9 kts 16°
2026-05-06 13:31 49.00821 2.56520 368 ft 11 kts 75°
2026-05-06 13:32 49.00828 2.56637 360 ft 12 kts 86°
2026-05-06 13:32 49.00835 2.56766 360 ft 13 kts 85°
2026-05-06 13:32 49.00844 2.56912 363 ft 16 kts 85°
2026-05-06 13:32 49.00854 2.57087 366 ft 17 kts 85°
2026-05-06 13:33 49.00863 2.57270 363 ft 18 kts 85°
2026-05-06 13:33 49.00872 2.57459 364 ft 18 kts 85°
2026-05-06 13:33 49.00882 2.57653 367 ft 19 kts 85°
2026-05-06 13:33 49.00892 2.57855 366 ft 19 kts 85°
2026-05-06 13:34 49.00903 2.58062 360 ft 20 kts 85°
2026-05-06 13:34 49.00950 2.58220 366 ft 13 kts 25°
2026-05-06 13:34 49.01025 2.58225 364 ft 14 kts 355°
2026-05-06 13:34 49.01153 2.58208 366 ft 20 kts 355°
2026-05-06 13:35 49.01290 2.58191 362 ft 19 kts 355°
2026-05-06 13:35 49.01422 2.58174 363 ft 19 kts 355°
2026-05-06 13:35 49.01549 2.58157 360 ft 18 kts 355°
2026-05-06 13:35 49.01674 2.58141 362 ft 18 kts 355°
2026-05-06 13:36 49.01805 2.58125 362 ft 19 kts 355°
2026-05-06 13:36 49.01928 2.58083 365 ft 18 kts 335°
2026-05-06 13:36 49.02025 2.57976 368 ft 17 kts 311°
2026-05-06 13:36 49.02078 2.57823 366 ft 16 kts 284°
2026-05-06 13:37 49.02088 2.57655 363 ft 16 kts 266°
2026-05-06 13:37 49.02082 2.57486 365 ft 16 kts 266°
2026-05-06 13:37 49.02070 2.57322 362 ft 16 kts 264°
2026-05-06 13:37 49.02061 2.57156 364 ft 15 kts 271°
2026-05-06 13:38 49.02089 2.57086 367 ft 3 kts 334°
2026-05-06 13:38 49.02124 2.57076 365 ft 11 kts 351°
2026-05-06 13:38 49.02228 2.57062 366 ft 16 kts 356°
2026-05-06 13:38 49.02331 2.57020 367 ft 14 kts 322°
2026-05-06 13:39 49.02363 2.56901 366 ft 12 kts 267°
2026-05-06 13:39 49.02350 2.56652 366 ft 45 kts 265°
2026-05-06 13:39 49.02308 2.55874 360 ft 104 kts 266°
2026-05-06 13:39 49.02235 2.54497 363 ft 156 kts 265°
2026-05-06 13:40 49.02134 2.52741 812 ft 168 kts 270°
2026-05-06 13:40 49.02043 2.51026 1696 ft 171 kts 268°
2026-05-06 13:40 49.01942 2.49129 2317 ft 186 kts 269°
2026-05-06 13:40 49.01835 2.47021 2724 ft 215 kts 268°
2026-05-06 13:41 49.01706 2.44613 3226 ft 241 kts 269°
2026-05-06 13:41 49.02013 2.42092 3820 ft 249 kts 304°
2026-05-06 13:41 49.03133 2.40109 4780 ft 250 kts 327°
2026-05-06 13:41 49.04641 2.38754 5705 ft 254 kts 329°
2026-05-06 13:42 49.06148 2.37307 6625 ft 259 kts 329°
2026-05-06 13:42 49.07684 2.35825 7529 ft 264 kts 329°
2026-05-06 13:42 49.09253 2.34334 8464 ft 267 kts 329°
2026-05-06 13:42 49.10963 2.33225 9278 ft 272 kts 351°
2026-05-06 13:43 49.12830 2.33278 10046 ft 278 kts 15°
2026-05-06 13:43 49.14591 2.34581 10400 ft 301 kts 40°
2026-05-06 13:43 49.15890 2.37234 10572 ft 329 kts 67°
2026-05-06 13:43 49.16308 2.40794 10741 ft 357 kts 91°
2026-05-06 13:44 49.15739 2.44589 11110 ft 374 kts 111°
2026-05-06 13:44 49.14612 2.48187 11865 ft 378 kts 117°
2026-05-06 13:44 49.13380 2.51764 12555 ft 383 kts 116°
2026-05-06 13:44 49.12281 2.55493 13295 ft 387 kts 111°
2026-05-06 13:45 49.11345 2.59372 13945 ft 392 kts 110°
2026-05-06 13:45 49.09325 2.67108 15208 ft 398 kts 110°
2026-05-06 13:45 49.08595 2.71212 15755 ft 402 kts 105°
2026-05-06 13:46 49.07873 2.75354 16357 ft 406 kts 105°
2026-05-06 13:46 49.07139 2.79526 16930 ft 410 kts 105°
2026-05-06 13:46 49.06410 2.83751 17535 ft 413 kts 105°
2026-05-06 13:46 49.05678 2.87990 18095 ft 417 kts 105°
2026-05-06 13:47 49.04930 2.92284 18602 ft 420 kts 105°
2026-05-06 13:47 49.04185 2.96539 19088 ft 422 kts 106°
2026-05-06 13:47 49.03427 3.00866 19609 ft 425 kts 106°
2026-05-06 13:47 49.02663 3.05226 20089 ft 427 kts 106°
2026-05-06 13:48 49.01892 3.09609 20561 ft 429 kts 106°
2026-05-06 13:48 49.01114 3.14019 21006 ft 432 kts 106°
2026-05-06 13:48 49.00331 3.18447 21446 ft 434 kts 106°
2026-05-06 13:48 48.99542 3.22900 21853 ft 437 kts 106°
2026-05-06 13:49 48.98757 3.27319 22257 ft 440 kts 107°
2026-05-06 13:49 48.97957 3.31815 22651 ft 442 kts 107°
2026-05-06 13:49 48.97147 3.36348 23033 ft 445 kts 107°
2026-05-06 13:49 48.96332 3.40902 23384 ft 447 kts 107°
2026-05-06 13:50 48.95511 3.45479 23704 ft 449 kts 107°
2026-05-06 13:50 48.94685 3.50073 24016 ft 451 kts 107°
2026-05-06 13:50 48.93893 3.54696 24293 ft 453 kts 102°
2026-05-06 13:50 48.93568 3.59467 24536 ft 456 kts 95°
2026-05-06 13:51 48.93322 3.64218 24821 ft 457 kts 96°
2026-05-06 13:51 48.93066 3.69040 25114 ft 458 kts 96°
2026-05-06 13:51 48.92806 3.73880 25377 ft 460 kts 96°
2026-05-06 13:51 48.92545 3.78731 25652 ft 462 kts 96°
2026-05-06 13:52 48.92281 3.83602 25939 ft 463 kts 96°
2026-05-06 13:52 48.92014 3.88487 26199 ft 465 kts 96°
2026-05-06 13:52 48.91744 3.93383 26474 ft 466 kts 96°
2026-05-06 13:52 48.91469 3.98311 26774 ft 467 kts 96°
2026-05-06 13:53 48.91195 4.03233 27051 ft 468 kts 96°
2026-05-06 13:53 48.90920 4.08112 27345 ft 469 kts 96°
2026-05-06 13:53 48.90638 4.13049 27631 ft 470 kts 96°
2026-05-06 13:53 48.90350 4.18019 27903 ft 472 kts 97°
2026-05-06 13:54 48.89678 4.22872 28156 ft 471 kts 110°
2026-05-06 13:54 48.88368 4.27414 28434 ft 469 kts 120°
2026-05-06 13:54 48.86789 4.31775 28662 ft 471 kts 120°
2026-05-06 13:54 48.85187 4.36119 28968 ft 472 kts 121°
2026-05-06 13:55 48.83580 4.40470 29270 ft 474 kts 121°
2026-05-06 13:55 48.81978 4.44851 29570 ft 475 kts 121°
2026-05-06 13:55 48.80396 4.49177 29878 ft 476 kts 121°
2026-05-06 13:55 48.78782 4.53557 30115 ft 477 kts 121°
2026-05-06 13:56 48.77157 4.57951 30354 ft 478 kts 121°
2026-05-06 13:56 48.75529 4.62360 30598 ft 480 kts 121°
2026-05-06 13:56 48.73899 4.66773 30837 ft 482 kts 121°
2026-05-06 13:56 48.72256 4.71208 31075 ft 483 kts 121°
2026-05-06 13:57 48.70611 4.75635 31416 ft 482 kts 121°
2026-05-06 13:57 48.68968 4.80054 31789 ft 482 kts 121°
2026-05-06 13:57 48.67345 4.84413 32120 ft 482 kts 121°
2026-05-06 13:57 48.65698 4.88828 32484 ft 482 kts 121°
2026-05-06 13:58 48.64049 4.93239 32852 ft 482 kts 121°
2026-05-06 13:58 48.62398 4.97650 33219 ft 482 kts 121°
2026-05-06 13:58 48.60744 5.02060 33593 ft 482 kts 121°
2026-05-06 13:58 48.59089 5.06467 33923 ft 483 kts 121°
2026-05-06 13:59 48.57433 5.10869 34218 ft 483 kts 121°
2026-05-06 13:59 48.55766 5.15293 34495 ft 484 kts 121°
2026-05-06 13:59 48.54124 5.19642 34774 ft 485 kts 121°
2026-05-06 13:59 48.52454 5.24059 35065 ft 485 kts 122°
2026-05-06 14:00 48.50779 5.28481 35348 ft 486 kts 122°
2026-05-06 14:00 48.49103 5.32898 35633 ft 486 kts 122°
2026-05-06 14:00 48.47421 5.37326 35908 ft 487 kts 122°
2026-05-06 14:00 48.45738 5.41747 36190 ft 487 kts 122°
2026-05-06 14:01 48.44046 5.46185 36489 ft 488 kts 122°
2026-05-06 14:01 48.42379 5.50549 36744 ft 488 kts 122°
2026-05-06 14:01 48.40683 5.54983 37025 ft 489 kts 122°
2026-05-06 14:01 48.38985 5.59414 37310 ft 489 kts 122°
2026-05-06 14:02 48.37280 5.63855 37583 ft 490 kts 122°
2026-05-06 14:02 48.35574 5.68293 37852 ft 491 kts 123°
2026-05-06 14:02 48.33865 5.72731 38124 ft 491 kts 123°
2026-05-06 14:02 48.32153 5.77172 38380 ft 491 kts 122°
2026-05-06 14:03 48.30717 5.81843 38626 ft 495 kts 111°
2026-05-06 14:03 48.29636 5.86700 38756 ft 498 kts 111°
2026-05-06 14:03 48.28572 5.91646 38967 ft 498 kts 110°
2026-05-06 14:03 48.27511 5.96600 39184 ft 498 kts 111°
2026-05-06 14:04 48.26429 6.01540 39401 ft 499 kts 111°
2026-05-06 14:04 48.25337 6.06475 39601 ft 499 kts 111°
2026-05-06 14:04 48.24252 6.11420 39798 ft 499 kts 111°
2026-05-06 14:04 48.23170 6.16369 40005 ft 500 kts 111°
2026-05-06 14:05 48.22080 6.21321 40196 ft 500 kts 111°
2026-05-06 14:05 48.20997 6.26204 40385 ft 500 kts 111°
2026-05-06 14:05 48.19898 6.31157 40592 ft 500 kts 111°
2026-05-06 14:05 48.18801 6.36107 40780 ft 501 kts 111°
2026-05-06 14:06 48.16584 6.46054 40829 ft 505 kts 111°
2026-05-06 14:06 48.14368 6.55962 40838 ft 500 kts 111°
2026-05-06 14:07 48.12165 6.65751 40845 ft 499 kts 111°
2026-05-06 14:07 48.09940 6.75598 40843 ft 499 kts 111°
2026-05-06 14:08 48.07708 6.85429 40842 ft 499 kts 111°
2026-05-06 14:08 48.05466 6.95257 40835 ft 500 kts 111°
2026-05-06 14:09 48.03228 7.05029 40825 ft 501 kts 112°
2026-05-06 14:09 48.00962 7.14875 40834 ft 501 kts 112°
2026-05-06 14:10 47.98689 7.24701 40827 ft 501 kts 112°
2026-05-06 14:10 47.96408 7.34520 40824 ft 501 kts 112°
2026-05-06 14:11 47.94135 7.44262 40823 ft 500 kts 112°
2026-05-06 14:11 47.91839 7.54057 40828 ft 500 kts 112°
2026-05-06 14:12 47.89427 7.63756 40843 ft 500 kts 113°
2026-05-06 14:12 47.87029 7.73496 40859 ft 501 kts 114°
2026-05-06 14:13 47.84539 7.83172 40855 ft 501 kts 114°
2026-05-06 14:13 47.82103 7.92797 40852 ft 500 kts 114°
2026-05-06 14:14 47.79620 8.02464 40844 ft 500 kts 114°
2026-05-06 14:14 47.77136 8.12142 40839 ft 501 kts 114°
2026-05-06 14:15 47.74655 8.21748 40839 ft 501 kts 114°
2026-05-06 14:15 47.72149 8.31416 40848 ft 502 kts 114°
2026-05-06 14:16 47.69613 8.41075 40863 ft 501 kts 118°
2026-05-06 14:16 47.67924 8.45534 40893 ft 495 kts 130°
2026-05-06 14:16 47.65824 8.49562 40873 ft 494 kts 131°
2026-05-06 14:17 47.61565 8.57557 40883 ft 494 kts 132°
2026-05-06 14:17 47.57289 8.65540 40881 ft 495 kts 132°
2026-05-06 14:18 47.53037 8.73468 40876 ft 494 kts 132°
2026-05-06 14:18 47.48751 8.81427 40877 ft 495 kts 132°
2026-05-06 14:19 47.44460 8.89380 40873 ft 495 kts 132°
2026-05-06 14:19 47.40163 8.97313 40861 ft 495 kts 132°
2026-05-06 14:20 47.35892 9.05181 40853 ft 494 kts 133°
2026-05-06 14:20 47.31599 9.13065 40837 ft 493 kts 133°
2026-05-06 14:21 47.27304 9.20930 40833 ft 493 kts 133°
2026-05-06 14:21 47.23007 9.28777 40829 ft 492 kts 133°
2026-05-06 14:22 47.18735 9.36552 40850 ft 492 kts 133°
2026-05-06 14:22 47.14431 9.44367 40838 ft 491 kts 133°
2026-05-06 14:23 47.10136 9.52142 40831 ft 491 kts 133°
2026-05-06 14:23 47.05818 9.59937 40823 ft 492 kts 133°
2026-05-06 14:24 47.01528 9.67660 40813 ft 492 kts 133°
2026-05-06 14:24 46.97206 9.75420 40812 ft 491 kts 133°
2026-05-06 14:25 46.92881 9.83159 40818 ft 491 kts 133°
2026-05-06 14:25 46.88557 9.90878 40823 ft 491 kts 134°
2026-05-06 14:26 46.84255 9.98535 40834 ft 490 kts 134°
2026-05-06 14:26 46.79932 10.06209 40872 ft 489 kts 134°
2026-05-06 14:27 46.75610 10.13858 40857 ft 488 kts 134°
2026-05-06 14:27 46.71282 10.21499 40870 ft 489 kts 134°
2026-05-06 14:28 46.66972 10.29082 40870 ft 491 kts 134°
2026-05-06 14:28 46.62602 10.36756 40868 ft 492 kts 134°
2026-05-06 14:29 46.58234 10.44402 40866 ft 491 kts 134°
2026-05-06 14:29 46.54256 10.52517 40862 ft 497 kts 127°
2026-05-06 14:30 46.50576 10.61005 40911 ft 495 kts 127°
2026-05-06 14:30 46.46938 10.69439 40895 ft 497 kts 127°
2026-05-06 14:31 46.43250 10.77931 40941 ft 497 kts 127°
2026-05-06 14:31 46.39561 10.86409 40948 ft 498 kts 127°
2026-05-06 14:32 46.35895 10.94810 40958 ft 497 kts 127°
2026-05-06 14:32 46.32191 11.03267 40960 ft 496 kts 127°
2026-05-06 14:33 46.28501 11.11673 40960 ft 496 kts 127°
2026-05-06 14:33 46.24790 11.20098 40961 ft 496 kts 127°
2026-05-06 14:34 46.21086 11.28481 40944 ft 495 kts 127°
2026-05-06 14:34 46.17398 11.36803 40923 ft 495 kts 127°
2026-05-06 14:35 46.13684 11.45160 40916 ft 494 kts 127°
2026-05-06 14:35 46.09966 11.53499 40894 ft 495 kts 127°
2026-05-06 14:36 46.06235 11.61846 40895 ft 496 kts 128°
2026-05-06 14:36 46.02499 11.70177 40907 ft 495 kts 128°
2026-05-06 14:37 45.98786 11.78430 40900 ft 495 kts 128°
2026-05-06 14:37 45.95015 11.86792 40905 ft 495 kts 128°
2026-05-06 14:38 45.91289 11.95026 40908 ft 495 kts 128°
2026-05-06 14:38 45.87533 12.03304 40906 ft 495 kts 128°
2026-05-06 14:39 45.83773 12.11564 40909 ft 495 kts 128°
2026-05-06 14:39 45.80002 12.19825 40903 ft 496 kts 128°
2026-05-06 14:40 45.76251 12.28022 40877 ft 495 kts 128°
2026-05-06 14:40 45.72474 12.36246 40879 ft 495 kts 128°
2026-05-06 14:41 45.68686 12.44474 40880 ft 495 kts 128°
2026-05-06 14:41 45.64920 12.52630 40880 ft 495 kts 128°
2026-05-06 14:42 45.61129 12.60816 40888 ft 495 kts 128°
2026-05-06 14:42 45.57319 12.69017 40881 ft 495 kts 128°
2026-05-06 14:43 45.53518 12.77179 40884 ft 494 kts 128°
2026-05-06 14:43 45.49727 12.85293 40884 ft 495 kts 128°
2026-05-06 14:44 45.45910 12.93439 40884 ft 495 kts 128°
2026-05-06 14:45 45.40157 13.05676 40885 ft 495 kts 128°
2026-05-06 14:45 45.36315 13.13818 40894 ft 495 kts 128°
2026-05-06 14:46 45.32480 13.21921 40897 ft 495 kts 128°
2026-05-06 14:46 45.28420 13.29695 40913 ft 493 kts 132°
2026-05-06 14:47 45.24216 13.37394 40920 ft 493 kts 132°
2026-05-06 14:47 45.19999 13.45045 40919 ft 492 kts 132°
2026-05-06 14:48 45.15781 13.52701 40922 ft 493 kts 132°
2026-05-06 14:48 45.11586 13.60286 40931 ft 493 kts 132°
2026-05-06 14:49 45.07348 13.67930 40943 ft 493 kts 132°
2026-05-06 14:49 45.03108 13.75559 40954 ft 493 kts 133°
2026-05-06 14:50 44.98896 13.83114 40959 ft 493 kts 133°
2026-05-06 14:50 44.94650 13.90713 40958 ft 492 kts 133°
2026-05-06 14:51 44.90399 13.98297 40961 ft 493 kts 133°
2026-05-06 14:51 44.86146 14.05868 40957 ft 493 kts 133°
2026-05-06 14:52 44.81873 14.13453 40962 ft 493 kts 133°
2026-05-06 14:52 44.77638 14.20951 40953 ft 493 kts 133°
2026-05-06 14:53 44.73365 14.28495 40948 ft 493 kts 133°
2026-05-06 14:53 44.69086 14.36031 40949 ft 494 kts 133°
2026-05-06 14:54 44.64814 14.43535 40950 ft 494 kts 133°
2026-05-06 14:54 44.60519 14.51060 40957 ft 494 kts 133°
2026-05-06 14:55 44.56214 14.58582 40950 ft 494 kts 133°
2026-05-06 14:55 44.51903 14.66093 40957 ft 495 kts 133°
2026-05-06 14:56 44.47581 14.73607 40957 ft 495 kts 133°
2026-05-06 14:56 44.43288 14.81048 40960 ft 495 kts 133°
2026-05-06 14:57 44.38967 14.88522 40972 ft 494 kts 133°
2026-05-06 14:57 44.34633 14.95995 40977 ft 495 kts 133°
2026-05-06 14:58 44.30324 15.03407 40978 ft 495 kts 133°
2026-05-06 14:58 44.25983 15.10855 40981 ft 495 kts 133°
2026-05-06 14:59 44.21634 15.18296 40984 ft 495 kts 133°
2026-05-06 14:59 44.17281 15.25727 40986 ft 495 kts 134°
2026-05-06 15:00 44.12945 15.33109 40986 ft 495 kts 134°
2026-05-06 15:00 44.08584 15.40514 40990 ft 495 kts 134°
2026-05-06 15:01 44.04215 15.47914 40984 ft 495 kts 134°
2026-05-06 15:01 43.99838 15.55309 40983 ft 494 kts 134°
2026-05-06 15:02 43.95503 15.62613 40974 ft 494 kts 134°
2026-05-06 15:02 43.91137 15.69952 40979 ft 493 kts 134°
2026-05-06 15:03 43.86769 15.77274 40978 ft 493 kts 134°
2026-05-06 15:03 43.82394 15.84591 40976 ft 493 kts 134°
2026-05-06 15:04 43.78034 15.91863 40979 ft 494 kts 134°
2026-05-06 15:04 43.73640 15.99174 40989 ft 496 kts 134°
2026-05-06 15:05 43.69231 16.06493 41004 ft 495 kts 134°
2026-05-06 15:05 43.64807 16.13815 41010 ft 496 kts 134°
2026-05-06 15:06 43.60414 16.21071 41013 ft 495 kts 134°
2026-05-06 15:06 43.55991 16.28355 41016 ft 495 kts 134°
2026-05-06 15:07 43.51559 16.35638 41016 ft 495 kts 134°
2026-05-06 15:07 43.47137 16.42885 41014 ft 495 kts 134°
2026-05-06 15:08 43.42734 16.50083 41012 ft 495 kts 135°
2026-05-06 15:08 43.38304 16.57307 41039 ft 494 kts 135°
2026-05-06 15:09 43.33864 16.64530 41043 ft 494 kts 134°
2026-05-06 15:09 43.29453 16.71688 41043 ft 494 kts 134°
2026-05-06 15:10 43.25003 16.78890 41044 ft 495 kts 134°
2026-05-06 15:10 43.20560 16.86066 41032 ft 494 kts 134°
2026-05-06 15:11 43.16098 16.93252 41029 ft 494 kts 134°
2026-05-06 15:11 43.11678 17.00353 41023 ft 494 kts 134°
2026-05-06 15:12 43.07203 17.07526 41019 ft 494 kts 134°
2026-05-06 15:12 43.02741 17.14661 41017 ft 495 kts 134°
2026-05-06 15:13 42.98265 17.21799 41023 ft 496 kts 134°
2026-05-06 15:13 42.93796 17.28910 41020 ft 497 kts 134°
2026-05-06 15:14 42.89290 17.36063 41020 ft 496 kts 134°
2026-05-06 15:14 42.84785 17.43196 41028 ft 497 kts 134°
2026-05-06 15:15 42.80274 17.50321 41025 ft 497 kts 134°
2026-05-06 15:15 42.75749 17.57449 41025 ft 498 kts 134°
2026-05-06 15:16 42.71247 17.64526 41048 ft 498 kts 134°
2026-05-06 15:16 42.66705 17.71648 41047 ft 498 kts 134°
2026-05-06 15:17 42.62168 17.78746 41044 ft 499 kts 134°
2026-05-06 15:17 42.57601 17.85872 41045 ft 499 kts 134°
2026-05-06 15:18 42.53075 17.92917 41048 ft 499 kts 134°
2026-05-06 15:18 42.48498 18.00024 41044 ft 500 kts 134°
2026-05-06 15:19 42.43929 18.07103 41043 ft 500 kts 134°
2026-05-06 15:19 42.39342 18.14191 41043 ft 501 kts 134°
2026-05-06 15:20 42.34779 18.21227 41047 ft 500 kts 134°
2026-05-06 15:20 42.30188 18.28286 41053 ft 501 kts 134°
2026-05-06 15:21 42.25582 18.35355 41050 ft 501 kts 134°
2026-05-06 15:21 42.20977 18.42403 41058 ft 501 kts 134°
2026-05-06 15:22 42.16397 18.49397 41057 ft 501 kts 134°
2026-05-06 15:22 42.11787 18.56419 41058 ft 500 kts 134°
2026-05-06 15:23 42.07166 18.63440 41059 ft 501 kts 134°
2026-05-06 15:23 42.02525 18.70477 41060 ft 502 kts 134°
2026-05-06 15:24 41.97960 18.77386 41068 ft 491 kts 135°
2026-05-06 15:24 41.93462 18.84171 41061 ft 483 kts 135°
2026-05-06 15:25 41.88980 18.90917 41061 ft 485 kts 135°
2026-05-06 15:25 41.84505 18.97640 41067 ft 487 kts 135°
2026-05-06 15:26 41.79990 19.04405 41064 ft 487 kts 135°
2026-05-06 15:26 41.75472 19.11161 41068 ft 488 kts 135°
2026-05-06 15:27 41.70937 19.17928 41065 ft 488 kts 135°
2026-05-06 15:27 41.66426 19.24643 41067 ft 488 kts 135°
2026-05-06 15:28 41.61885 19.31386 41070 ft 487 kts 135°
2026-05-06 15:28 41.57359 19.38092 41071 ft 486 kts 135°
2026-05-06 15:29 41.52820 19.44802 41069 ft 487 kts 135°
2026-05-06 15:29 41.48271 19.51512 41074 ft 488 kts 135°
2026-05-06 15:30 41.43751 19.58165 41069 ft 488 kts 135°
2026-05-06 15:30 41.39203 19.64843 41074 ft 487 kts 135°
2026-05-06 15:31 41.34637 19.71532 41068 ft 488 kts 135°
2026-05-06 15:31 41.30075 19.78202 41067 ft 488 kts 135°
2026-05-06 15:32 41.23202 19.88220 41069 ft 489 kts 135°
2026-05-06 15:32 41.18643 19.94848 41064 ft 489 kts 135°
2026-05-06 15:33 41.14060 20.01494 41069 ft 488 kts 135°
2026-05-06 15:33 41.09460 20.08151 41066 ft 489 kts 135°
2026-05-06 15:34 41.04864 20.14788 41060 ft 489 kts 135°
2026-05-06 15:34 41.00290 20.21377 41062 ft 489 kts 135°
2026-05-06 15:35 40.95694 20.27986 41059 ft 488 kts 135°
2026-05-06 15:35 40.91086 20.34594 41062 ft 489 kts 135°
2026-05-06 15:36 40.86475 20.41194 41063 ft 488 kts 135°
2026-05-06 15:36 40.81896 20.47733 41060 ft 488 kts 135°
2026-05-06 15:37 40.77282 20.54308 41051 ft 488 kts 135°
2026-05-06 15:37 40.72664 20.60873 41058 ft 489 kts 135°
2026-05-06 15:38 40.68039 20.67435 41051 ft 489 kts 135°
2026-05-06 15:38 40.63444 20.73940 41066 ft 489 kts 135°
2026-05-06 15:39 40.58805 20.80492 41044 ft 489 kts 135°
2026-05-06 15:39 40.54169 20.87027 41062 ft 488 kts 135°
2026-05-06 15:40 40.49561 20.93507 41062 ft 489 kts 135°
2026-05-06 15:40 40.45191 21.00354 41050 ft 491 kts 131°
2026-05-06 15:41 40.40923 21.07343 41055 ft 491 kts 131°
2026-05-06 15:41 40.36653 21.14346 41051 ft 491 kts 131°
2026-05-06 15:42 40.32375 21.21336 41048 ft 491 kts 131°
2026-05-06 15:42 40.28126 21.28266 41043 ft 491 kts 131°
2026-05-06 15:43 40.23842 21.35237 41036 ft 492 kts 131°
2026-05-06 15:43 40.19546 21.42212 41040 ft 493 kts 131°
2026-05-06 15:44 40.15243 21.49183 41037 ft 492 kts 131°
2026-05-06 15:44 40.10964 21.56099 41035 ft 492 kts 131°
2026-05-06 15:45 40.06661 21.63039 41030 ft 492 kts 131°
2026-05-06 15:45 40.02347 21.69980 41029 ft 493 kts 131°
2026-05-06 15:46 39.98013 21.76939 41022 ft 494 kts 131°
2026-05-06 15:46 39.93703 21.83843 41012 ft 493 kts 131°
2026-05-06 15:47 39.89369 21.90771 41007 ft 493 kts 131°
2026-05-06 15:47 39.85030 21.97692 41008 ft 493 kts 131°
2026-05-06 15:48 39.80691 22.04597 41002 ft 493 kts 131°
2026-05-06 15:48 39.76378 22.11445 40998 ft 492 kts 131°
2026-05-06 15:49 39.72042 22.18315 41002 ft 491 kts 131°
2026-05-06 15:49 39.67703 22.25175 41001 ft 492 kts 131°
2026-05-06 15:50 39.63381 22.31993 41005 ft 492 kts 131°
2026-05-06 15:50 39.59032 22.38840 41007 ft 492 kts 131°
2026-05-06 15:51 39.54677 22.45680 41002 ft 493 kts 131°
2026-05-06 15:51 39.50311 22.52522 41005 ft 493 kts 131°
2026-05-06 15:52 39.45968 22.59314 41018 ft 493 kts 131°
2026-05-06 15:52 39.41601 22.66129 41017 ft 492 kts 131°
2026-05-06 15:53 39.37224 22.72944 41018 ft 493 kts 131°
2026-05-06 15:53 39.32834 22.79765 41019 ft 494 kts 131°
2026-05-06 15:54 39.28465 22.86540 41017 ft 494 kts 131°
2026-05-06 15:54 39.24064 22.93347 41019 ft 494 kts 131°
2026-05-06 15:55 39.19663 23.00142 41020 ft 494 kts 131°
2026-05-06 15:55 39.15283 23.06889 41027 ft 494 kts 131°
2026-05-06 15:56 39.10871 23.13672 41029 ft 494 kts 131°
2026-05-06 15:56 39.06454 23.20446 41036 ft 494 kts 131°
2026-05-06 15:57 39.02036 23.27209 41040 ft 494 kts 131°
2026-05-06 15:57 38.97631 23.33937 41042 ft 495 kts 131°
2026-05-06 15:58 38.93190 23.40705 41044 ft 495 kts 131°
2026-05-06 15:58 38.88750 23.47458 41040 ft 494 kts 131°
2026-05-06 15:59 38.84313 23.54192 41036 ft 494 kts 131°
2026-05-06 15:59 38.79908 23.60863 41038 ft 494 kts 131°
2026-05-06 16:00 38.75462 23.67582 41037 ft 494 kts 131°
2026-05-06 16:00 38.71013 23.74291 41041 ft 494 kts 131°
2026-05-06 16:01 38.66591 23.80946 41038 ft 494 kts 131°
2026-05-06 16:01 38.62134 23.87639 41045 ft 494 kts 131°
2026-05-06 16:02 38.57670 23.94329 41048 ft 495 kts 131°
2026-05-06 16:02 38.53199 24.01015 41050 ft 495 kts 131°
2026-05-06 16:03 38.48754 24.07648 41059 ft 495 kts 131°
2026-05-06 16:03 38.44276 24.14317 41065 ft 494 kts 131°
2026-05-06 16:04 38.39798 24.20973 41065 ft 495 kts 131°
2026-05-06 16:04 38.35310 24.27628 41063 ft 495 kts 131°
2026-05-06 16:05 38.30847 24.34234 41069 ft 496 kts 131°
2026-05-06 16:05 38.26340 24.40890 41069 ft 496 kts 131°
2026-05-06 16:06 38.21827 24.47542 41075 ft 497 kts 131°
2026-05-06 16:06 38.17302 24.54197 41071 ft 498 kts 131°
2026-05-06 16:07 38.12789 24.60821 41074 ft 499 kts 131°
2026-05-06 16:07 38.08236 24.67490 41075 ft 500 kts 131°
2026-05-06 16:08 38.04443 24.73035 41076 ft 501 kts 131°
2026-05-06 16:08 37.99880 24.79693 41076 ft 500 kts 131°
2026-05-06 16:09 37.94572 24.87422 41080 ft 501 kts 131°
2026-05-06 16:09 37.89996 24.94071 41082 ft 501 kts 131°
2026-05-06 16:10 37.85410 25.00718 41079 ft 501 kts 131°
2026-05-06 16:10 37.80822 25.07356 41079 ft 502 kts 131°
2026-05-06 16:11 37.76246 25.13962 41077 ft 503 kts 131°
2026-05-06 16:11 37.71635 25.20606 41081 ft 503 kts 132°
2026-05-06 16:12 37.67793 25.26131 41083 ft 504 kts 132°
2026-05-06 16:12 37.63168 25.32769 41081 ft 504 kts 132°
2026-05-06 16:13 37.58538 25.39402 41085 ft 504 kts 132°
2026-05-06 16:13 37.53142 25.47114 41084 ft 505 kts 132°
2026-05-06 16:14 37.49279 25.52625 41079 ft 505 kts 132°
2026-05-06 16:14 37.44623 25.59254 41083 ft 505 kts 132°
2026-05-06 16:15 37.39967 25.65870 41081 ft 505 kts 132°
2026-05-06 16:15 37.35313 25.72469 41083 ft 504 kts 132°
2026-05-06 16:16 37.30693 25.79006 41092 ft 505 kts 132°
2026-05-06 16:16 37.26015 25.85613 41092 ft 505 kts 132°
2026-05-06 16:17 37.21337 25.92205 41088 ft 506 kts 132°
2026-05-06 16:17 37.16681 25.98754 41096 ft 507 kts 133°
2026-05-06 16:18 37.11986 26.05344 41093 ft 507 kts 133°
2026-05-06 16:18 37.07282 26.11935 41087 ft 508 kts 133°
2026-05-06 16:19 37.02567 26.18527 41091 ft 509 kts 133°
2026-05-06 16:19 36.97905 26.25107 41103 ft 509 kts 127°
2026-05-06 16:20 36.93825 26.32344 41094 ft 509 kts 125°
2026-05-06 16:20 36.89756 26.39591 41095 ft 510 kts 126°
2026-05-06 16:21 36.85662 26.46840 41089 ft 510 kts 125°
2026-05-06 16:21 36.81610 26.54027 41088 ft 510 kts 126°
2026-05-06 16:22 36.77511 26.61258 41097 ft 510 kts 126°
2026-05-06 16:22 36.73396 26.68518 41097 ft 517 kts 126°
2026-05-06 16:23 36.69199 26.75896 41095 ft 526 kts 126°
2026-05-06 16:23 36.64991 26.83285 41092 ft 526 kts 126°
2026-05-06 16:24 36.60752 26.90708 41088 ft 526 kts 126°
2026-05-06 16:24 36.56509 26.98124 41091 ft 525 kts 126°
2026-05-06 16:25 36.52271 27.05513 41083 ft 525 kts 126°
2026-05-06 16:25 36.48054 27.12851 41082 ft 525 kts 126°
2026-05-06 16:26 36.43801 27.20234 41072 ft 525 kts 126°
2026-05-06 16:26 36.39546 27.27605 41078 ft 526 kts 126°
2026-05-06 16:27 36.35284 27.34975 41059 ft 525 kts 126°
2026-05-06 16:27 36.31046 27.42284 41052 ft 525 kts 126°
2026-05-06 16:28 36.26775 27.49637 41055 ft 526 kts 126°
2026-05-06 16:28 36.22492 27.56993 41054 ft 527 kts 126°
2026-05-06 16:29 36.18228 27.64302 41057 ft 527 kts 126°
2026-05-06 16:29 36.13925 27.71660 41053 ft 528 kts 126°
2026-05-06 16:30 36.10347 27.77769 41058 ft 528 kts 127°
2026-05-06 16:30 36.05299 27.86366 41062 ft 529 kts 127°
2026-05-06 16:31 36.01004 27.93666 41064 ft 529 kts 127°
2026-05-06 16:31 35.96677 28.01002 41061 ft 528 kts 127°
2026-05-06 16:32 35.92351 28.08322 40995 ft 527 kts 127°
2026-05-06 16:32 35.88047 28.15591 41050 ft 525 kts 127°
2026-05-06 16:33 35.83734 28.22858 41051 ft 525 kts 127°
2026-05-06 16:34 35.77290 28.33687 41052 ft 525 kts 127°
2026-05-06 16:34 35.72971 28.40927 41054 ft 525 kts 127°
2026-05-06 16:35 35.68648 28.48159 41056 ft 525 kts 127°
2026-05-06 16:35 35.64346 28.55341 41054 ft 525 kts 127°
2026-05-06 16:36 35.60010 28.62564 41058 ft 525 kts 127°
2026-05-06 16:36 35.55665 28.69786 41056 ft 526 kts 127°
2026-05-06 16:37 35.51304 28.77021 41064 ft 527 kts 127°
2026-05-06 16:37 35.46971 28.84194 41065 ft 527 kts 127°
2026-05-06 16:38 35.42599 28.91418 41065 ft 528 kts 127°
2026-05-06 16:38 35.38221 28.98636 41069 ft 527 kts 128°
2026-05-06 16:39 35.33868 29.05797 41066 ft 528 kts 128°
2026-05-06 16:39 35.29482 29.12998 41068 ft 527 kts 128°
2026-05-06 16:40 35.25095 29.20187 41065 ft 527 kts 128°
2026-05-06 16:40 35.20703 29.27369 41064 ft 528 kts 128°
2026-05-06 16:41 35.16305 29.34545 41070 ft 527 kts 128°
2026-05-06 16:41 35.11943 29.41648 41071 ft 526 kts 128°
2026-05-06 16:42 35.07556 29.48780 41069 ft 525 kts 128°
2026-05-06 16:42 35.03167 29.55898 41072 ft 524 kts 128°
2026-05-06 16:43 34.98778 29.63002 41072 ft 524 kts 128°
2026-05-06 16:43 34.94416 29.70048 41068 ft 524 kts 128°
2026-05-06 16:44 34.90015 29.77143 41072 ft 525 kts 128°
2026-05-06 16:44 34.85609 29.84233 41072 ft 524 kts 128°
2026-05-06 16:45 34.81207 29.91301 41071 ft 524 kts 129°
2026-05-06 16:45 34.76823 29.98326 41073 ft 525 kts 129°
2026-05-06 16:46 34.72836 30.05773 41084 ft 527 kts 122°
2026-05-06 16:46 34.69005 30.13361 41086 ft 527 kts 123°
2026-05-06 16:47 34.65167 30.20866 41088 ft 527 kts 123°
2026-05-06 16:47 34.61318 30.28432 41087 ft 526 kts 123°
2026-05-06 16:48 34.57449 30.35986 41086 ft 527 kts 123°
2026-05-06 16:48 34.53590 30.43523 41085 ft 526 kts 123°
2026-05-06 16:49 34.49749 30.51000 41082 ft 526 kts 123°
2026-05-06 16:49 34.45881 30.58518 41079 ft 526 kts 123°
2026-05-06 16:50 34.42011 30.66023 41084 ft 526 kts 123°
2026-05-06 16:50 34.38129 30.73536 41079 ft 525 kts 123°
2026-05-06 16:51 34.34279 30.80968 41074 ft 525 kts 124°
2026-05-06 16:51 34.30392 30.88461 41074 ft 526 kts 124°
2026-05-06 16:52 34.26499 30.95946 41074 ft 526 kts 124°
2026-05-06 16:52 34.22602 31.03424 41076 ft 525 kts 124°
2026-05-06 16:53 34.18728 31.10842 41089 ft 526 kts 124°
2026-05-06 16:53 34.14818 31.18315 41089 ft 526 kts 124°
2026-05-06 16:54 34.10908 31.25773 41083 ft 525 kts 124°
2026-05-06 16:54 34.07026 31.33160 41072 ft 524 kts 124°
2026-05-06 16:55 34.03129 31.40561 41082 ft 523 kts 124°
2026-05-06 16:55 33.99221 31.47968 41080 ft 524 kts 124°
2026-05-06 16:56 33.95308 31.55370 41075 ft 523 kts 124°
2026-05-06 16:56 33.91420 31.62707 41075 ft 523 kts 125°
2026-05-06 16:57 33.87499 31.70093 41077 ft 524 kts 125°
2026-05-06 16:57 33.83572 31.77476 41075 ft 524 kts 125°
2026-05-06 16:58 33.79644 31.84845 41073 ft 523 kts 125°
2026-05-06 16:58 33.75738 31.92158 41076 ft 524 kts 125°
2026-05-06 16:59 33.71795 31.99525 41074 ft 524 kts 125°
2026-05-06 16:59 33.67854 32.06874 41077 ft 523 kts 125°
2026-05-06 17:00 33.63916 32.14203 41080 ft 522 kts 126°
2026-05-06 17:00 33.59994 32.21486 41079 ft 524 kts 126°
2026-05-06 17:01 33.56029 32.28835 41078 ft 526 kts 126°
2026-05-06 17:01 33.52055 32.36187 41080 ft 525 kts 126°
2026-05-06 17:02 33.48078 32.43528 41083 ft 524 kts 126°
2026-05-06 17:02 33.44126 32.50807 41075 ft 525 kts 126°
2026-05-06 17:03 33.40140 32.58138 41081 ft 526 kts 126°
2026-05-06 17:03 33.36146 32.65466 41078 ft 526 kts 126°
2026-05-06 17:04 33.32171 32.72746 41072 ft 526 kts 126°
2026-05-06 17:04 33.28168 32.80062 41076 ft 526 kts 126°
2026-05-06 17:05 33.24160 32.87373 41072 ft 526 kts 126°
2026-05-06 17:05 33.22164 32.91011 40625 ft 524 kts 126°
2026-05-06 17:05 33.20153 32.94667 39858 ft 528 kts 126°
2026-05-06 17:05 33.18139 32.98327 39236 ft 527 kts 126°
2026-05-06 17:06 33.16130 33.01978 38566 ft 526 kts 126°
2026-05-06 17:06 33.14146 33.05576 37671 ft 528 kts 126°
2026-05-06 17:06 33.12125 33.09238 36887 ft 527 kts 126°
2026-05-06 17:06 33.10106 33.12893 36121 ft 527 kts 126°
2026-05-06 17:07 33.08088 33.16545 35317 ft 529 kts 125°
2026-05-06 17:07 33.06055 33.20218 34486 ft 532 kts 125°
2026-05-06 17:07 33.04011 33.23908 33566 ft 536 kts 125°
2026-05-06 17:07 33.01957 33.27616 32640 ft 537 kts 125°
2026-05-06 17:08 32.99922 33.31283 31697 ft 539 kts 126°
2026-05-06 17:08 32.97850 33.35010 30688 ft 541 kts 126°
2026-05-06 17:08 32.95768 33.38753 29581 ft 542 kts 126°
2026-05-06 17:08 32.93692 33.42483 28556 ft 539 kts 126°
2026-05-06 17:09 32.91628 33.46189 27534 ft 536 kts 126°
2026-05-06 17:09 32.89570 33.49877 26530 ft 533 kts 126°
2026-05-06 17:09 32.87529 33.53531 25543 ft 529 kts 126°
2026-05-06 17:09 32.85547 33.57082 24574 ft 505 kts 127°
2026-05-06 17:10 32.83679 33.60435 23669 ft 472 kts 127°
2026-05-06 17:10 32.81647 33.63577 22741 ft 483 kts 137°
2026-05-06 17:10 32.79332 33.66439 21850 ft 478 kts 137°
2026-05-06 17:10 32.77029 33.69265 20960 ft 474 kts 137°
2026-05-06 17:11 32.74751 33.72064 20102 ft 470 kts 137°
2026-05-06 17:11 32.72496 33.74851 19243 ft 466 kts 137°
2026-05-06 17:11 32.70256 33.77618 18393 ft 462 kts 137°
2026-05-06 17:11 32.68035 33.80349 17510 ft 457 kts 137°
2026-05-06 17:12 32.65873 33.83004 16610 ft 452 kts 137°
2026-05-06 17:12 32.63706 33.85666 15790 ft 445 kts 136°
2026-05-06 17:12 32.61573 33.88287 14986 ft 438 kts 136°
2026-05-06 17:12 32.59468 33.90870 14193 ft 432 kts 136°
2026-05-06 17:13 32.57398 33.93407 13379 ft 425 kts 136°
2026-05-06 17:13 32.55373 33.95891 12949 ft 409 kts 136°
2026-05-06 17:13 32.53431 33.98318 12563 ft 403 kts 135°
2026-05-06 17:13 32.51544 34.00699 12270 ft 400 kts 135°
2026-05-06 17:14 32.49634 34.03086 11998 ft 399 kts 135°
2026-05-06 17:14 32.47721 34.05462 11720 ft 398 kts 135°
2026-05-06 17:14 32.45815 34.07834 11437 ft 396 kts 135°
2026-05-06 17:14 32.43922 34.10199 11155 ft 394 kts 135°
2026-05-06 17:15 32.41998 34.12481 10964 ft 387 kts 142°
2026-05-06 17:15 32.39685 34.14075 10967 ft 386 kts 160°
2026-05-06 17:15 32.37100 34.14789 10973 ft 381 kts 178°
2026-05-06 17:15 32.34515 34.14587 10991 ft 376 kts 195°
2026-05-06 17:16 32.32093 34.13515 11009 ft 371 kts 212°
2026-05-06 17:16 32.30054 34.11689 11026 ft 366 kts 228°
2026-05-06 17:16 32.28552 34.09284 11050 ft 363 kts 244°
2026-05-06 17:16 32.27687 34.06507 11064 ft 361 kts 259°
2026-05-06 17:17 32.27509 34.03563 11080 ft 360 kts 274°
2026-05-06 17:17 32.28028 34.00678 11108 ft 360 kts 290°
2026-05-06 17:17 32.29190 33.98097 11120 ft 362 kts 305°
2026-05-06 17:17 32.30863 33.95872 11129 ft 364 kts 311°
2026-05-06 17:18 32.32602 33.93688 11136 ft 364 kts 312°
2026-05-06 17:18 32.34355 33.91528 11141 ft 364 kts 312°
2026-05-06 17:18 32.36105 33.89358 11148 ft 365 kts 312°
2026-05-06 17:18 32.37859 33.87186 11149 ft 364 kts 314°
2026-05-06 17:19 32.39937 33.85468 11150 ft 369 kts 331°
2026-05-06 17:19 32.42375 33.84497 11150 ft 373 kts 347°
2026-05-06 17:19 32.44980 33.84398 11155 ft 378 kts
2026-05-06 17:19 32.47492 33.85196 11166 ft 384 kts 21°
2026-05-06 17:20 32.49756 33.86876 11179 ft 389 kts 39°
2026-05-06 17:20 32.51519 33.89321 11190 ft 393 kts 57°
2026-05-06 17:20 32.52584 33.92312 11217 ft 396 kts 75°
2026-05-06 17:20 32.52830 33.95560 11228 ft 398 kts 94°
2026-05-06 17:21 32.52229 33.98738 11248 ft 398 kts 112°
2026-05-06 17:21 32.50857 34.01518 11269 ft 396 kts 131°
2026-05-06 17:21 32.49001 34.03918 11281 ft 396 kts 134°
2026-05-06 17:21 32.47111 34.06268 11291 ft 395 kts 136°
2026-05-06 17:22 32.45187 34.08619 11264 ft 397 kts 135°
2026-05-06 17:22 32.43296 34.10968 10836 ft 383 kts 134°
2026-05-06 17:22 32.41675 34.13578 10513 ft 399 kts 124°
2026-05-06 17:22 32.40151 34.16268 10229 ft 389 kts 125°
2026-05-06 17:23 32.38629 34.18899 9988 ft 386 kts 125°
2026-05-06 17:23 32.37162 34.21451 9854 ft 355 kts 125°
2026-05-06 17:23 32.35858 34.23733 9081 ft 324 kts 124°
2026-05-06 17:23 32.34671 34.25807 8966 ft 291 kts 124°
2026-05-06 17:24 32.33530 34.27790 8974 ft 298 kts 125°
2026-05-06 17:24 32.32381 34.29788 8982 ft 289 kts 125°
2026-05-06 17:24 32.31253 34.31752 8795 ft 284 kts 124°
2026-05-06 17:24 32.30161 34.33654 8543 ft 281 kts 124°
2026-05-06 17:25 32.29056 34.35574 8273 ft 282 kts 124°
2026-05-06 17:25 32.27956 34.37484 7991 ft 279 kts 124°
2026-05-06 17:25 32.26881 34.39352 7718 ft 278 kts 124°
2026-05-06 17:25 32.25796 34.41235 7422 ft 276 kts 124°
2026-05-06 17:26 32.24718 34.43106 7146 ft 275 kts 124°
2026-05-06 17:26 32.23644 34.44968 6868 ft 273 kts 124°
2026-05-06 17:26 32.22567 34.46833 6597 ft 279 kts 124°
2026-05-06 17:26 32.21486 34.48694 6304 ft 270 kts 124°
2026-05-06 17:27 32.20428 34.50515 6019 ft 268 kts 124°
2026-05-06 17:27 32.19379 34.52322 5720 ft 266 kts 124°
2026-05-06 17:27 32.18354 34.54087 5457 ft 264 kts 124°
2026-05-06 17:27 32.17315 34.55875 5193 ft 263 kts 124°
2026-05-06 17:28 32.16312 34.57668 4917 ft 260 kts 118°
2026-05-06 17:28 32.15467 34.59505 4647 ft 250 kts 121°
2026-05-06 17:28 32.14546 34.61205 4379 ft 242 kts 124°
2026-05-06 17:28 32.13574 34.62816 4154 ft 240 kts 123°
2026-05-06 17:29 32.12702 34.64492 3907 ft 239 kts 121°
2026-05-06 17:29 32.11854 34.66150 3653 ft 238 kts 120°
2026-05-06 17:29 32.11002 34.67819 3423 ft 238 kts 120°
2026-05-06 17:29 32.10149 34.69491 3183 ft 239 kts 120°
2026-05-06 17:30 32.09301 34.71152 2995 ft 235 kts 120°
2026-05-06 17:30 32.08455 34.72814 2834 ft 237 kts 120°
2026-05-06 17:30 32.07637 34.74415 2532 ft 215 kts 120°
2026-05-06 17:30 32.06917 34.75840 2252 ft 192 kts 119°
2026-05-06 17:31 32.06257 34.77132 1997 ft 178 kts 119°
2026-05-06 17:31 32.05640 34.78341 1774 ft 169 kts 120°
2026-05-06 17:31 32.05048 34.79499 1540 ft 163 kts 119°
2026-05-06 17:31 32.04486 34.80623 1335 ft 156 kts 119°
2026-05-06 17:32 32.03929 34.81718 1117 ft 154 kts 119°
2026-05-06 17:32 32.03382 34.82794 941 ft 152 kts 119°
2026-05-06 17:32 32.02826 34.83866 773 ft 155 kts 119°
2026-05-06 17:32 32.02305 34.84906 529 ft 146 kts 119°
2026-05-06 17:33 32.01780 34.85946 336 ft 151 kts 120°
2026-05-06 17:33 32.01254 34.86993 139 ft 149 kts 118°
2026-05-06 17:33 32.00829 34.87825 122 ft 71 kts 121°
2026-05-06 17:33 32.00617 34.88237 123 ft 55 kts 121°
2026-05-06 17:34 32.00421 34.88567 123 ft 39 kts 140°
2026-05-06 17:34 32.00243 34.88676 122 ft 18 kts 179°
2026-05-06 17:34 32.00191 34.88639 123 ft 3 kts 255°
2026-05-06 17:34 32.00207 34.88588 122 ft 11 kts 303°
2026-05-06 17:35 32.00265 34.88479 122 ft 18 kts 301°
2026-05-06 17:35 32.00328 34.88359 122 ft 14 kts 301°
2026-05-06 17:35 32.00380 34.88260 124 ft 12 kts 302°
2026-05-06 17:36 32.00476 34.88076 121 ft 15 kts 301°
2026-05-06 17:36 32.00522 34.87988 121 ft 12 kts 301°
2026-05-06 17:36 32.00570 34.87895 121 ft 15 kts 301°
2026-05-06 17:36 32.00627 34.87783 121 ft 12 kts 300°
2026-05-06 17:37 32.00628 34.87741 124 ft 6 kts 241°
2026-05-06 17:37 32.00603 34.87677 125 ft 9 kts 265°
2026-05-06 17:37 32.00630 34.87609 122 ft 10 kts 291°
2026-05-06 17:37 32.00621 34.87545 121 ft 6 kts 244°
2026-05-06 17:38 32.00607 34.87510 122 ft 3 kts 243°
2026-05-06 17:38 32.00604 34.87503 121 ft 1 kts 243°
2026-05-06 17:38 32.00603 34.87502 121 ft 0 kts 243°